When you browse on this site, cookies collect data to enhance your experience and personalize the content and advertising you see.
Visit our Privacy Policy to learn more. By continuing to use the site, you agree to this use of cookies and data.

Hourly Weather Simonyaty

Today, 10 July, Friday

Time Temperature Precipitation Wind Pressure Humidity
00:00 +10°C° 0 mm 2 mps 755 mmHg 92%
01:00 +9°C° 0 mm 2 mps 755 mmHg 94%
02:00 +9°C° 0 mm 2 mps 755 mmHg 94%
03:00 +9°C° 0 mm 2 mps 755 mmHg 94%
04:00 +9°C° 0 mm 2 mps 755 mmHg 93%
05:00 +9°C° 0 mm 2 mps 755 mmHg 92%
06:00 +12°C° 0 mm 2 mps 755 mmHg 85%
07:00 +14°C° 0 mm 2 mps 755 mmHg 79%
08:00 +16°C° 0 mm 3 mps 755 mmHg 72%
09:00 +16°C° 0.3 mm 3 mps 754 mmHg 77%
10:00 +16°C° 0.3 mm 3 mps 754 mmHg 81%
11:00 +16°C° 0.3 mm 3 mps 754 mmHg 86%
12:00 +14°C° 0.7 mm 3 mps 753 mmHg 89%
13:00 +14°C° 0.7 mm 3 mps 753 mmHg 92%
14:00 +13°C° 0.7 mm 3 mps 753 mmHg 95%
15:00 +13°C° 0.4 mm 3 mps 752 mmHg 96%
16:00 +15°C° 0.4 mm 2 mps 752 mmHg 96%
17:00 +15°C° 0.4 mm 2 mps 751 mmHg 97%
18:00 +15°C° 0 mm 2 mps 751 mmHg 97%
19:00 +16°C° 0 mm 1 mps 751 mmHg 97%
20:00 +16°C° 0 mm 1 mps 751 mmHg 97%
21:00 +16°C° 0 mm 1 mps 750 mmHg 98%
22:00 +15°C° 0 mm 1 mps 750 mmHg 98%
23:00 +15°C° 0 mm 1 mps 750 mmHg 98%

Tomorrow, 11 July, Saturday

Time Temperature Precipitation Wind Pressure Humidity
00:00 +15°C° 0 mm 1 mps 750 mmHg 98%
01:00 +15°C° 0 mm 1 mps 750 mmHg 98%
02:00 +14°C° 0 mm 1 mps 750 mmHg 98%
03:00 +15°C° 0.2 mm 2 mps 750 mmHg 98%
04:00 +16°C° 0.2 mm 3 mps 749 mmHg 98%
05:00 +16°C° 0.2 mm 3 mps 748 mmHg 98%
06:00 +17°C° 0.2 mm 4 mps 748 mmHg 96%
07:00 +17°C° 0.2 mm 5 mps 748 mmHg 94%
08:00 +19°C° 0.2 mm 6 mps 748 mmHg 91%
09:00 +18°C° 0 mm 7 mps 749 mmHg 81%
10:00 +18°C° 0 mm 7 mps 750 mmHg 71%
11:00 +18°C° 0 mm 7 mps 750 mmHg 61%
12:00 +18°C° 0 mm 8 mps 751 mmHg 58%
13:00 +20°C° 0 mm 8 mps 751 mmHg 54%
14:00 +21°C° 0 mm 9 mps 752 mmHg 51%
15:00 +20°C° 0 mm 8 mps 752 mmHg 52%
16:00 +20°C° 0 mm 7 mps 753 mmHg 53%
17:00 +20°C° 0 mm 6 mps 754 mmHg 55%
18:00 +17°C° 0 mm 5 mps 754 mmHg 61%
19:00 +17°C° 0 mm 4 mps 754 mmHg 67%
20:00 +16°C° 0 mm 3 mps 755 mmHg 73%
21:00 +13°C° 0 mm 3 mps 755 mmHg 78%
22:00 +13°C° 0 mm 2 mps 756 mmHg 84%
23:00 +12°C° 0 mm 2 mps 756 mmHg 90%

Day after tomorrow, 12 July, Sunday

Time Temperature Precipitation Wind Pressure Humidity
00:00 +10°C° 0 mm 2 mps 756 mmHg 91%
01:00 +10°C° 0 mm 2 mps 757 mmHg 93%
02:00 +10°C° 0 mm 2 mps 757 mmHg 94%
03:00 +10°C° 0 mm 2 mps 757 mmHg 92%
04:00 +10°C° 0 mm 2 mps 757 mmHg 91%
05:00 +12°C° 0 mm 2 mps 757 mmHg 90%
06:00 +13°C° 0 mm 2 mps 757 mmHg 84%
07:00 +15°C° 0 mm 2 mps 757 mmHg 79%
08:00 +16°C° 0 mm 2 mps 757 mmHg 73%
09:00 +17°C° 0 mm 2 mps 757 mmHg 67%
10:00 +18°C° 0 mm 2 mps 757 mmHg 61%
11:00 +19°C° 0 mm 2 mps 757 mmHg 55%
12:00 +20°C° 0 mm 2 mps 757 mmHg 52%
13:00 +20°C° 0 mm 2 mps 757 mmHg 50%
14:00 +21°C° 0 mm 2 mps 757 mmHg 47%
15:00 +21°C° 0 mm 2 mps 756 mmHg 49%
16:00 +20°C° 0 mm 2 mps 756 mmHg 51%
17:00 +20°C° 0 mm 2 mps 756 mmHg 53%
18:00 +19°C° 0 mm 2 mps 756 mmHg 61%
19:00 +18°C° 0 mm 2 mps 756 mmHg 69%
20:00 +16°C° 0 mm 2 mps 756 mmHg 77%
21:00 +15°C° 0 mm 2 mps 756 mmHg 80%
22:00 +14°C° 0 mm 1 mps 756 mmHg 83%
23:00 +13°C° 0 mm 1 mps 756 mmHg 86%

13 July, Monday

Time Temperature Precipitation Wind Pressure Humidity
00:00 +12°C° 0 mm 1 mps 756 mmHg 89%
01:00 +12°C° 0 mm 1 mps 756 mmHg 91%
02:00 +11°C° 0 mm 1 mps 756 mmHg 93%
03:00 +10°C° 0 mm 2 mps 756 mmHg 91%
04:00 +10°C° 0 mm 2 mps 756 mmHg 90%
05:00 +10°C° 0 mm 2 mps 756 mmHg 89%
06:00 +13°C° 0 mm 2 mps 756 mmHg 81%
07:00 +15°C° 0 mm 2 mps 756 mmHg 73%
08:00 +17°C° 0 mm 2 mps 756 mmHg 65%
09:00 +18°C° 0 mm 2 mps 755 mmHg 60%
10:00 +19°C° 0 mm 2 mps 755 mmHg 56%
11:00 +20°C° 0 mm 2 mps 755 mmHg 52%
12:00 +21°C° 0 mm 2 mps 754 mmHg 50%
13:00 +21°C° 0 mm 2 mps 754 mmHg 48%
14:00 +23°C° 0 mm 2 mps 754 mmHg 46%
15:00 +23°C° 0 mm 2 mps 754 mmHg 46%
16:00 +23°C° 0 mm 2 mps 753 mmHg 46%
17:00 +23°C° 0 mm 2 mps 753 mmHg 45%
18:00 +20°C° 0 mm 2 mps 753 mmHg 54%
19:00 +18°C° 0 mm 2 mps 753 mmHg 63%
20:00 +17°C° 0 mm 2 mps 753 mmHg 71%
21:00 +15°C° 0 mm 2 mps 753 mmHg 78%
22:00 +14°C° 0 mm 2 mps 753 mmHg 84%
23:00 +13°C° 0 mm 2 mps 753 mmHg 90%

14 July, Tuesday

Time Temperature Precipitation Wind Pressure Humidity
00:00 +12°C° 0 mm 3 mps 753 mmHg 90%
01:00 +11°C° 0 mm 3 mps 754 mmHg 90%
02:00 +11°C° 0 mm 3 mps 754 mmHg 91%
03:00 +11°C° 0 mm 3 mps 754 mmHg 90%
04:00 +10°C° 0 mm 3 mps 754 mmHg 88%
05:00 +10°C° 0 mm 4 mps 754 mmHg 87%
06:00 +12°C° 0 mm 4 mps 754 mmHg 80%
07:00 +13°C° 0 mm 4 mps 754 mmHg 73%
08:00 +15°C° 0 mm 4 mps 754 mmHg 66%
09:00 +17°C° 0 mm 4 mps 754 mmHg 58%
10:00 +18°C° 0 mm 4 mps 754 mmHg 51%
11:00 +19°C° 0 mm 5 mps 754 mmHg 43%
12:00 +20°C° 0 mm 4 mps 753 mmHg 43%
13:00 +20°C° 0 mm 4 mps 753 mmHg 42%
14:00 +21°C° 0 mm 4 mps 753 mmHg 42%
15:00 +21°C° 0 mm 3 mps 753 mmHg 45%
16:00 +21°C° 0 mm 3 mps 753 mmHg 48%
17:00 +21°C° 0 mm 3 mps 753 mmHg 50%
18:00 +19°C° 0 mm 2 mps 753 mmHg 58%
19:00 +18°C° 0 mm 2 mps 753 mmHg 66%
20:00 +17°C° 0 mm 2 mps 753 mmHg 74%
21:00 +15°C° 0 mm 2 mps 753 mmHg 75%
22:00 +14°C° 0 mm 2 mps 753 mmHg 76%
23:00 +12°C° 0 mm 3 mps 753 mmHg 78%

15 July, Wednesday

Time Temperature Precipitation Wind Pressure Humidity
00:00 +12°C° 0 mm 2 mps 753 mmHg 81%
01:00 +10°C° 0 mm 2 mps 753 mmHg 84%
02:00 +10°C° 0 mm 2 mps 754 mmHg 88%
03:00 +10°C° 0 mm 2 mps 754 mmHg 88%
04:00 +10°C° 0 mm 2 mps 754 mmHg 89%
05:00 +10°C° 0 mm 2 mps 754 mmHg 89%
06:00 +14°C° 0 mm 2 mps 754 mmHg 81%
07:00 +16°C° 0 mm 3 mps 754 mmHg 72%
08:00 +18°C° 0 mm 3 mps 754 mmHg 64%
09:00 +19°C° 0 mm 3 mps 754 mmHg 60%
10:00 +20°C° 0 mm 3 mps 754 mmHg 56%
11:00 +21°C° 0 mm 3 mps 754 mmHg 52%
12:00 +22°C° 0 mm 3 mps 754 mmHg 51%
13:00 +22°C° 0 mm 3 mps 754 mmHg 49%
14:00 +24°C° 0 mm 2 mps 754 mmHg 48%
15:00 +24°C° 0 mm 2 mps 753 mmHg 51%
16:00 +23°C° 0 mm 1 mps 753 mmHg 53%
17:00 +23°C° 0 mm 1 mps 753 mmHg 56%
18:00 +22°C° 0.1 mm 1 mps 753 mmHg 62%
19:00 +20°C° 0.1 mm 1 mps 753 mmHg 69%
20:00 +17°C° 0.1 mm 0 mps 753 mmHg 75%
21:00 +16°C° 0 mm 0 mps 754 mmHg 78%
22:00 +16°C° 0 mm 1 mps 754 mmHg 81%
23:00 +15°C° 0 mm 1 mps 754 mmHg 84%
Show more